| time (UTC) | temp F | wind direction | speed knots | gust knots | rain 1hr in | rain 24hr in | rain mn in | humidity % | barometer mb |
| 20260504044605 | 57 | 244 | 0.9 | 3.5 | 0.00 | 0.10 | 0.10 | 48 | 1005.2 |
| 20260504043057 | 57 | 240 | 0.0 | 4.3 | 0.00 | 0.10 | 0.10 | 47 | 1005.0 |
| 20260504041608 | 57 | 259 | 0.0 | 3.5 | 0.00 | 0.10 | 0.10 | 47 | 1005.0 |
| 20260504034614 | 59 | 259 | 0.9 | 5.2 | 0.00 | 0.10 | 0.10 | 45 | 1005.0 |
| 20260504033109 | 58 | 272 | 0.0 | 0.9 | 0.00 | 0.10 | 0.10 | 47 | 1005.1 |
| 20260504031600 | 58 | 272 | 0.9 | 3.5 | 0.00 | 0.10 | 0.10 | 48 | 1005.1 |
| 20260504030054 | 59 | 272 | 3.5 | 6.1 | 0.00 | 0.10 | 0.10 | 47 | 1005.0 |
| 20260504024552 | 58 | 275 | 2.6 | 6.1 | 0.00 | 0.10 | 0.10 | 48 | 1005.0 |
| 20260504023057 | 59 | 277 | 1.7 | 5.2 | 0.00 | 0.10 | 0.10 | 47 | 1004.9 |
| 20260504021554 | 59 | 284 | 1.7 | 3.5 | 0.00 | 0.10 | 0.10 | 48 | 1004.8 |
| 20260504020051 | 59 | 284 | 5.2 | 7.8 | 0.00 | 0.10 | 0.10 | 48 | 1004.7 |
| 20260504014606 | 60 | 292 | 6.1 | 7.8 | 0.00 | 0.10 | 0.10 | 47 | 1004.6 |
| 20260504013054 | 62 | 279 | 7.0 | 9.6 | 0.00 | 0.10 | 0.10 | 45 | 1004.4 |
| 20260504011558 | 64 | 268 | 7.8 | 9.6 | 0.00 | 0.10 | 0.10 | 42 | 1004.1 |
| 20260504010059 | 66 | 273 | 6.1 | 9.6 | 0.00 | 0.10 | 0.10 | 42 | 1004.2 |
| 20260504004555 | 66 | 267 | 4.3 | 8.7 | 0.00 | 0.10 | 0.10 | 41 | 1004.0 |
| 20260504003059 | 68 | 273 | 2.6 | 6.1 | 0.00 | 0.10 | 0.10 | 42 | 1003.9 |
| 20260504001554 | 69 | 274 | 4.3 | 7.0 | 0.00 | 0.10 | 0.10 | 40 | 1003.8 |
| 20260504000055 | 71 | 269 | 6.1 | 11.3 | 0.00 | 0.10 | 0.10 | 38 | 1003.9 |
| 20260503234556 | 71 | 285 | 7.0 | 13.0 | 0.00 | 0.10 | 0.10 | 38 | 1004.0 |
| 20260503233054 | 71 | 271 | 0.9 | 12.2 | 0.00 | 0.10 | 0.10 | 37 | 1003.9 |
| 20260503231555 | 72 | 244 | 7.0 | 10.4 | 0.00 | 0.10 | 0.10 | 37 | 1004.0 |
| 20260503230058 | 72 | 275 | 6.1 | 10.4 | 0.00 | 0.10 | 0.10 | 38 | 1004.0 |
| 20260503224551 | 71 | 240 | 4.3 | 9.6 | 0.00 | 0.10 | 0.10 | 40 | 1004.1 |
| 20260503223057 | 72 | 200 | 10.4 | 15.6 | 0.00 | 0.10 | 0.10 | 37 | 1004.1 |
| 20260503221555 | 72 | 233 | 11.3 | 15.6 | 0.00 | 0.10 | 0.10 | 37 | 1004.3 |
| 20260503220059 | 72 | 195 | 8.7 | 17.4 | 0.00 | 0.10 | 0.10 | 37 | 1004.3 |
| 20260503214555 | 72 | 204 | 12.2 | 20.0 | 0.00 | 0.10 | 0.10 | 38 | 1004.4 |
| 20260503213110 | 71 | 210 | 10.4 | 16.5 | 0.00 | 0.10 | 0.10 | 38 | 1004.4 |
| 20260503211557 | 71 | 219 | 11.3 | 20.0 | 0.00 | 0.10 | 0.10 | 39 | 1004.5 |
| 20260503210105 | 70 | 207 | 8.7 | 18.2 | 0.00 | 0.10 | 0.10 | 41 | 1004.8 |
| 20260503204601 | 70 | 273 | 10.4 | 18.2 | 0.00 | 0.10 | 0.10 | 40 | 1005.0 |
| 20260503203107 | 69 | 205 | 13.0 | 20.0 | 0.00 | 0.10 | 0.10 | 40 | 1005.3 |
| 20260503201606 | 68 | 264 | 13.0 | 20.0 | 0.00 | 0.10 | 0.10 | 40 | 1005.4 |
| 20260503200105 | 68 | 216 | 9.6 | 19.1 | 0.00 | 0.10 | 0.10 | 42 | 1005.5 |
| 20260503194558 | 68 | 223 | 13.0 | 20.9 | 0.00 | 0.10 | 0.10 | 42 | 1005.8 |
| 20260503193059 | 67 | 225 | 9.6 | 18.2 | 0.00 | 0.10 | 0.10 | 43 | 1005.9 |
| 20260503191602 | 68 | 227 | 13.0 | 20.9 | 0.00 | 0.10 | 0.10 | 41 | 1006.1 |
| 20260503190100 | 67 | 214 | 16.5 | 30.4 | 0.00 | 0.10 | 0.10 | 42 | 1006.4 |
| 20260503184606 | 67 | 217 | 13.9 | 21.7 | 0.00 | 0.10 | 0.10 | 43 | 1006.5 |
| 20260503183108 | 65 | 219 | 15.6 | 27.8 | 0.00 | 0.10 | 0.10 | 45 | 1006.7 |
| 20260503181607 | 65 | 204 | 13.9 | 24.3 | 0.02 | 0.10 | 0.10 | 46 | 1007.0 |
| 20260503180057 | 64 | 190 | 15.6 | 23.5 | 0.02 | 0.10 | 0.10 | 47 | 1007.0 |
| 20260503174556 | 63 | 191 | 17.4 | 28.7 | 0.02 | 0.10 | 0.10 | 48 | 1007.2 |
| 20260503173059 | 63 | 202 | 20.0 | 25.2 | 0.02 | 0.10 | 0.10 | 47 | 1007.5 |
| 20260503171555 | 63 | 211 | 18.2 | 33.0 | 0.00 | 0.08 | 0.08 | 50 | 1007.5 |
| 20260503110108 | 46 | 202 | 8.7 | 11.3 | 0.00 | 0.00 | 0.00 | 64 | 1011.6 |
| 20260503081619 | 46 | 198 | 10.4 | 15.6 | 0.00 | 0.00 | 0.00 | 57 | 1012.1 |
| 20260503080111 | 46 | 200 | 11.3 | 15.6 | 0.00 | 0.00 | 0.00 | 56 | 1012.2 |
| 20260503071554 | 46 | 202 | 10.4 | 14.8 | 0.00 | 0.00 | 0.00 | 56 | 1012.4 |